User: anonymous   Login
Location: Rio Tanui
(39.9167°N, 8.5167°E)
Time: 13:14:56
(UTC+00:00)
Language:

COSMOS 2428 - Orbit

View from above orbital plane
View from above orbital plane
View from above satellite
View from above satellite

Ground track
Ground track

The orbit data is extracted from the following two-line orbital elements,

1 31792U 07029A   23152.10388822 -.00000143  00000-0 -51328-4 0  9998
2 31792  70.9296 168.5403 0009544 260.2788  99.7255 14.12546626821161
Epoch (UTC): 01 June 2023 02:29:35
Eccentricity: 0.0009544
inclination: 70.9296°
perigee height: 844 km
apogee height: 857 km
right ascension of ascending node: 168.5403°
argument of perigee: 260.2788°
revolutions per day: 14.12546626
mean anomaly at epoch: 99.7255°
orbit number at epoch: 82116

The dashed part of the orbit path shows where the satellite is in the earth's shadow,  

DLR